Date String (YYYY-MM-DD hh:mm:ss) UTC,Instrument flags,absolute air pressure of the measurement (hPa),sample flow rate (lpm),inlet stack bypass flow (lpm),air temperature of the measurement (°C),ambient temperature measured by the external sensor (°C),aerosol sample conditioner tube jacket temperature (°C),OPC LED temperature (°C),internal box temperature (°C),relative humidity of the measurement (%),span deviation,mass concentration of particles derived from Lorenz-Mie calculation of OPC scattering (μg/m³),mass concentration of particles derived from Lorenz-Mie calculation of OPC scattering (μg/m³),mass concentration of particles derived from Lorenz-Mie calculation of OPC scattering (μg/m³)
DateTimeUTC,F1_M11,P_M11,Q1_M11,Q2_M11,T1_M11,T2_M11,T3_M11,T4_M11,T5_M11,U1_M11,ZSPAN_M11,X2_M11,X0_M11,X1_M11
2024-02-12 23:00:00,SystemResetWarning,0824.5,5.00,000.00,021.9,021.2,000.0,030.2,023.7,12.2,0000.0,0001.99,0006.69,0001.51
2024-02-12 23:01:00,SystemResetWarning,0824.5,5.00,000.00,021.9,021.2,000.0,030.2,023.7,12.1,0000.0,0001.26,0004.64,0000.98
2024-02-12 23:02:00,SystemResetWarning,0824.5,5.00,000.00,021.9,021.2,000.0,030.2,023.6,12.2,0000.0,0000.88,0003.44,0000.68
2024-02-12 23:03:00,SystemResetWarning,0824.5,5.00,000.00,021.9,021.2,000.0,030.2,023.6,12.1,0000.0,0000.60,0002.46,0000.40
2024-02-12 23:04:00,SystemResetWarning,0824.4,5.00,000.00,021.9,021.1,000.0,030.2,023.6,12.3,0000.0,0000.45,0001.12,0000.26
2024-02-12 23:05:00,SystemResetWarning,0824.5,5.00,000.00,021.9,021.1,000.0,030.2,023.6,11.9,0000.0,0000.43,0001.13,0000.24
2024-02-12 23:06:00,SystemResetWarning,0824.4,5.00,000.00,021.9,021.1,000.0,030.2,023.6,12.0,0000.0,0000.43,0001.24,0000.24
2024-02-12 23:07:00,SystemResetWarning,0824.5,5.00,000.00,021.9,021.1,000.0,030.2,023.6,12.1,0000.0,0000.41,0001.21,0000.24
2024-02-12 23:08:00,SystemResetWarning,0824.4,5.00,000.00,021.8,021.1,000.0,030.2,023.6,12.4,0000.0,0000.40,0001.19,0000.23
2024-02-12 23:09:00,SystemResetWarning,0824.3,4.99,000.00,021.8,021.1,000.0,030.2,023.6,12.0,0000.0,0000.38,0001.14,0000.23
2024-02-12 23:10:00,SystemResetWarning,0824.4,5.00,000.00,021.8,021.1,000.0,030.2,023.6,11.9,0000.0,0000.40,0001.13,0000.24
2024-02-12 23:11:00,SystemResetWarning,0824.4,5.00,000.00,021.8,021.0,000.0,030.2,023.6,11.9,0000.0,0000.40,0001.43,0000.23
2024-02-12 23:12:00,SystemResetWarning,0824.4,5.01,000.00,021.8,021.0,000.0,030.2,023.5,12.4,0000.0,0000.43,0001.66,0000.24
2024-02-12 23:13:00,SystemResetWarning,0824.3,5.00,000.00,021.8,021.0,000.0,030.2,023.5,12.4,0000.0,0000.47,0001.75,0000.25
2024-02-12 23:14:00,SystemResetWarning,0824.4,5.00,000.00,021.8,021.0,000.0,030.2,023.6,12.0,0000.0,0000.47,0001.77,0000.25
2024-02-12 23:15:00,SystemResetWarning,0824.4,5.00,000.00,021.8,021.0,000.0,030.2,023.5,12.0,0000.0,0000.48,0001.58,0000.24
2024-02-12 23:16:00,SystemResetWarning,0824.4,5.00,000.00,021.8,021.0,000.0,030.2,023.5,12.6,0000.0,0000.48,0001.47,0000.25
2024-02-12 23:17:00,SystemResetWarning,0824.4,5.00,000.00,021.8,021.0,000.0,030.2,023.5,12.5,0000.0,0000.52,0001.49,0000.25
2024-02-12 23:18:00,SystemResetWarning,0824.3,5.00,000.00,021.8,021.0,000.0,030.2,023.5,12.5,0000.0,0000.54,0001.49,0000.26
2024-02-12 23:19:00,SystemResetWarning,0824.3,5.00,000.00,021.8,021.0,000.0,030.1,023.5,12.2,0000.0,0000.53,0001.46,0000.25
2024-02-12 23:20:00,SystemResetWarning,0824.2,5.00,000.00,021.8,021.0,000.0,030.1,023.5,11.9,0000.0,0000.54,0001.47,0000.25
2024-02-12 23:21:00,SystemResetWarning,0824.3,5.00,000.00,021.8,021.0,000.0,030.1,023.5,12.1,0000.0,0000.55,0001.48,0000.25
2024-02-12 23:22:00,SystemResetWarning,0824.3,5.00,000.00,021.8,021.0,000.0,030.1,023.5,12.2,0000.0,0000.53,0001.23,0000.25
2024-02-12 23:23:00,SystemResetWarning,0824.4,5.00,000.00,021.7,021.0,000.0,030.1,023.5,12.0,0000.0,0000.53,0000.98,0000.24
2024-02-12 23:24:00,SystemResetWarning,0824.4,4.99,000.00,021.7,021.0,000.0,030.1,023.5,12.0,0000.0,0000.50,0000.90,0000.24
2024-02-12 23:25:00,SystemResetWarning,0824.4,5.00,000.00,021.7,021.0,000.0,030.1,023.5,12.2,0000.0,0000.47,0002.21,0000.23
2024-02-12 23:26:00,SystemResetWarning,0824.4,5.00,000.00,021.7,021.0,000.0,030.1,023.5,12.5,0000.0,0000.48,0002.28,0000.24
2024-02-12 23:27:00,SystemResetWarning,0824.3,5.00,000.00,021.7,021.0,000.0,030.1,023.5,12.3,0000.0,0000.49,0002.33,0000.23
2024-02-12 23:28:00,SystemResetWarning,0824.4,5.01,000.00,021.7,021.0,000.0,030.1,023.5,12.5,0000.0,0000.49,0002.37,0000.23
2024-02-12 23:29:00,SystemResetWarning,0824.3,5.02,000.00,021.7,021.0,000.0,030.1,023.5,11.8,0000.0,0000.49,0002.37,0000.23
2024-02-12 23:30:00,SystemResetWarning,0824.4,4.99,000.00,021.7,021.0,000.0,030.1,023.5,11.8,0000.0,0000.51,0002.42,0000.23
2024-02-12 23:31:00,SystemResetWarning,0824.4,4.99,000.00,021.7,021.0,000.0,030.1,023.5,12.1,0000.0,0000.52,0002.43,0000.23
2024-02-12 23:32:00,SystemResetWarning,0824.4,5.00,000.00,021.7,021.0,000.0,030.1,023.5,11.6,0000.0,0000.51,0002.52,0000.24
2024-02-12 23:33:00,SystemResetWarning,0824.3,5.00,000.00,021.7,021.0,000.0,030.1,023.5,11.6,0000.0,0000.51,0002.55,0000.23
2024-02-12 23:34:00,SystemResetWarning,0824.4,5.00,000.00,021.7,021.0,000.0,030.1,023.5,11.4,0000.0,0000.49,0002.48,0000.24
2024-02-12 23:35:00,SystemResetWarning,0824.5,5.01,000.00,021.7,021.0,000.0,030.1,023.5,11.8,0000.0,0000.52,0002.42,0000.24
2024-02-12 23:36:00,SystemResetWarning,0824.5,5.01,000.00,021.7,021.0,000.0,030.1,023.5,12.1,0000.0,0000.51,0001.15,0000.25
2024-02-12 23:37:00,SystemResetWarning,0824.5,5.00,000.00,021.7,021.0,000.0,030.1,023.5,12.4,0000.0,0000.50,0001.07,0000.25
2024-02-12 23:38:00,SystemResetWarning,0824.5,5.00,000.00,021.7,021.0,000.0,030.1,023.5,12.2,0000.0,0000.49,0000.99,0000.25
2024-02-12 23:39:00,SystemResetWarning,0824.5,5.00,000.00,021.7,021.1,000.0,030.1,023.5,11.8,0000.0,0000.44,0000.83,0000.26
2024-02-12 23:40:00,SystemResetWarning,0824.5,4.99,000.00,021.7,021.1,000.0,030.1,023.5,12.1,0000.0,0000.42,0000.77,0000.26
2024-02-12 23:41:00,SystemResetWarning,0824.5,5.00,000.00,021.7,021.1,000.0,030.1,023.5,12.3,0000.0,0000.42,0000.80,0000.26
2024-02-12 23:42:00,SystemResetWarning,0824.5,5.00,000.00,021.7,021.0,000.0,030.1,023.5,12.1,0000.0,0000.42,0000.85,0000.27
2024-02-12 23:43:00,SystemResetWarning,0824.5,5.00,000.00,021.7,021.0,000.0,030.1,023.5,11.7,0000.0,0000.40,0000.69,0000.26
2024-02-12 23:44:00,SystemResetWarning,0824.5,5.00,000.00,021.7,021.0,000.0,030.1,023.5,11.8,0000.0,0000.39,0000.65,0000.27
2024-02-12 23:45:00,SystemResetWarning,0824.5,5.00,000.00,021.7,021.0,000.0,030.1,023.5,11.8,0000.0,0000.41,0000.70,0000.27
2024-02-12 23:46:00,SystemResetWarning,0824.5,5.01,000.00,021.7,021.0,000.0,030.1,023.5,11.5,0000.0,0000.40,0000.73,0000.27
2024-02-12 23:47:00,SystemResetWarning,0824.5,4.99,000.00,021.7,021.0,000.0,030.1,023.5,11.8,0000.0,0000.40,0000.78,0000.27
2024-02-12 23:48:00,SystemResetWarning,0824.5,4.99,000.00,021.7,021.0,000.0,030.1,023.5,11.9,0000.0,0000.40,0000.76,0000.27
2024-02-12 23:49:00,SystemResetWarning,0824.4,5.00,000.00,021.7,021.0,000.0,030.1,023.5,11.7,0000.0,0000.42,0000.81,0000.27
2024-02-12 23:50:00,SystemResetWarning,0824.4,5.01,000.00,021.7,021.0,000.0,030.1,023.5,11.3,0000.0,0000.43,0000.86,0000.27
2024-02-12 23:51:00,SystemResetWarning,0824.5,5.00,000.00,021.7,021.0,000.0,030.1,023.5,11.5,0000.0,0000.44,0001.75,0000.26
2024-02-12 23:52:00,SystemResetWarning,0824.5,5.00,000.00,021.7,021.0,000.0,030.1,023.4,11.9,0000.0,0000.45,0002.92,0000.27
2024-02-12 23:53:00,SystemResetWarning,0824.5,4.99,000.00,021.7,021.0,000.0,030.1,023.4,12.1,0000.0,0000.43,0002.83,0000.26
2024-02-12 23:54:00,SystemResetWarning,0824.5,4.99,000.00,021.7,020.9,000.0,030.1,023.4,11.8,0000.0,0000.44,0002.86,0000.27
2024-02-12 23:55:00,SystemResetWarning,0824.5,4.99,000.00,021.7,020.9,000.0,030.1,023.4,12.0,0000.0,0000.45,0002.87,0000.27
2024-02-12 23:56:00,SystemResetWarning,0824.5,5.01,000.00,021.7,020.9,000.0,030.1,023.4,11.9,0000.0,0000.46,0002.89,0000.27
2024-02-12 23:57:00,SystemResetWarning,0824.5,5.01,000.00,021.7,020.9,000.0,030.1,023.4,11.7,0000.0,0000.47,0002.86,0000.29
2024-02-12 23:58:00,SystemResetWarning,0824.5,5.00,000.00,021.7,020.9,000.0,030.1,023.4,11.7,0000.0,0000.46,0002.79,0000.29
2024-02-12 23:59:00,SystemResetWarning,0824.6,4.99,000.00,021.7,020.9,000.0,030.1,023.4,11.5,0000.0,0000.45,0002.79,0000.29
